This is the latest recevied weather packets stored in our database for station/object N3WGC-14. If no packets are shown the sender has not sent any weather packets the latest 10 day(s).
| Time | Temp. | Humidity | Pressure | Rain* | Wind** | Luminosity | Snow |
|---|---|---|---|---|---|---|---|
| 1787616159 | 21.11° C | 86% | 1015.3 hPa | 0 mm | - | - | - |
| 1787615859 | 21.67° C | 85% | 1015.3 hPa | 0 mm | - | - | - |
| 1787615559 | 21.67° C | 84% | 1015.3 hPa | 0 mm | - | - | - |
| 1787615259 | 21.67° C | 83% | 1015.2 hPa | 0 mm | - | - | - |
| 1787614959 | 21.67° C | 83% | 1015 hPa | 0 mm | - | - | - |
| 1787614659 | 22.22° C | 83% | 1014.9 hPa | 0 mm | - | - | - |
| 1787614359 | 22.22° C | 83% | 1015.1 hPa | 0 mm | - | - | - |
| 1787614058 | 22.22° C | 83% | 1015 hPa | 0 mm | - | - | - |
| 1787613758 | 22.78° C | 81% | 1014.9 hPa | 0 mm | - | - | - |
| 1787613458 | 23.33° C | 79% | 1014.9 hPa | 0 mm | - | - | - |
| 1787613158 | 23.33° C | 78% | 1014.9 hPa | 0 mm | - | - | - |
| 1787612858 | 23.89° C | 79% | 1014.9 hPa | 0 mm | - | - | - |
| 1787612558 | 23.89° C | 77% | 1014.8 hPa | 0 mm | - | - | - |
| 1787612258 | 24.44° C | 76% | 1014.8 hPa | 0 mm | - | - | - |
| 1787611957 | 24.44° C | 75% | 1014.8 hPa | 0 mm | - | - | - |
| 1787611657 | 25° C | 72% | 1014.7 hPa | 0 mm | - | - | - |
| 1787611357 | 25° C | 72% | 1014.7 hPa | 0 mm | - | - | - |
| 1787611057 | 25° C | 72% | 1014.7 hPa | 0 mm | - | - | - |
| 1787610757 | 25.56° C | 72% | 1014.5 hPa | 0 mm | - | - | - |
| 1787610457 | 25.56° C | 70% | 1014.6 hPa | 0 mm | - | - | - |
| 1787610156 | 25.56° C | 73% | 1014.5 hPa | 0 mm | - | - | - |
| 1787609856 | 25° C | 73% | 1014.4 hPa | 0 mm | - | - | - |
| 1787609556 | 25° C | 73% | 1014.4 hPa | 0 mm | - | - | - |
| 1787609256 | 25° C | 73% | 1014.4 hPa | 0 mm | - | - | - |
| 1787608956 | 25° C | 72% | 1014.3 hPa | 0 mm | - | - | - |
* Rain latest hour (hover to see other rain measurements)
** Current wind speed in m/s (hover to see current wind gust speed)